�������l�o���
Date,Time,MP-1(��Sv/h),MP-2(��Sv/h),MP-3(��Sv/h),MP-4(��Sv/h),MP-5(��Sv/h),MP-6(��Sv/h),MP-7(��Sv/h),MP-8(��Sv/h),����,����(m/s),���J
2023/05/20,00:00,0.540,0.781,0.479,0.953,0.687,0.318,0.565,0.533,�k��,2.3,��
2023/05/20,00:10,0.538,0.781,0.480,0.953,0.686,0.319,0.565,0.532,�k��,3.0,��
2023/05/20,00:20,0.540,0.781,0.480,0.953,0.687,0.316,0.564,0.532,�k��,3.4,��
2023/05/20,00:30,0.539,0.782,0.479,0.952,0.688,0.317,0.564,0.534,�k��,3.8,��
2023/05/20,00:40,0.540,0.780,0.479,0.952,0.688,0.315,0.565,0.534,�k�k��,4.4,�L
2023/05/20,00:50,0.540,0.783,0.479,0.954,0.687,0.317,0.563,0.532,�k�k��,4.6,�L
2023/05/20,01:00,0.541,0.782,0.480,0.952,0.688,0.316,0.563,0.533,�k��,5.4,�L
2023/05/20,01:10,0.540,0.781,0.479,0.953,0.687,0.317,0.563,0.532,�k�k��,5.2,�L
2023/05/20,01:20,0.537,0.781,0.479,0.952,0.687,0.316,0.563,0.532,�k�k��,6.5,�L
2023/05/20,01:30,0.538,0.777,0.480,0.955,0.684,0.317,0.563,0.530,�k�k��,6.8,�L
2023/05/20,01:40,0.537,0.777,0.478,0.954,0.686,0.317,0.562,0.533,�k�k��,7.1,�L
2023/05/20,01:50,0.540,0.778,0.479,0.949,0.686,0.318,0.563,0.532,�k�k��,7.5,�L
2023/05/20,02:00,0.539,0.779,0.479,0.952,0.685,0.317,0.563,0.533,�k�k��,7.3,�L
2023/05/20,02:10,0.539,0.779,0.480,0.953,0.686,0.317,0.564,0.533,�k�k��,8.2,�L
2023/05/20,02:20,0.539,0.779,0.478,0.954,0.686,0.316,0.564,0.531,�k�k��,6.9,�L
2023/05/20,02:30,0.538,0.780,0.479,0.952,0.687,0.317,0.563,0.532,�k�k��,6.9,�L
2023/05/20,02:40,0.539,0.781,0.479,0.953,0.686,0.317,0.563,0.532,�k�k��,7.5,�L
2023/05/20,02:50,0.541,0.782,0.479,0.953,0.686,0.317,0.562,0.533,�k�k��,7.6,��
2023/05/20,03:00,0.538,0.783,0.479,0.953,0.687,0.317,0.563,0.533,�k�k��,7.7,�L
2023/05/20,03:10,0.540,0.782,0.479,0.952,0.686,0.316,0.564,0.535,�k�k��,7.2,�L
2023/05/20,03:20,0.540,0.782,0.479,0.953,0.687,0.316,0.562,0.534,�k�k��,7.1,��
2023/05/20,03:30,0.540,0.783,0.480,0.951,0.687,0.316,0.562,0.533,�k�k��,7.3,��
2023/05/20,03:40,0.540,0.784,0.479,0.955,0.686,0.316,0.563,0.532,�k�k��,6.8,�L
2023/05/20,03:50,0.539,0.781,0.479,0.953,0.688,0.317,0.562,0.533,�k�k��,7.3,�L
2023/05/20,04:00,0.539,0.781,0.479,0.955,0.686,0.317,0.562,0.533,�k�k��,7.4,�L
2023/05/20,04:10,0.538,0.784,0.481,0.955,0.685,0.319,0.562,0.533,�k�k��,6.9,�L
2023/05/20,04:20,0.540,0.784,0.480,0.954,0.687,0.318,0.563,0.533,�k�k��,6.2,�L
2023/05/20,04:30,0.540,0.784,0.478,0.955,0.688,0.317,0.561,0.533,�k�k��,7.5,�L
2023/05/20,04:40,0.540,0.784,0.479,0.955,0.690,0.320,0.563,0.533,�k�k��,7.4,�L
2023/05/20,04:50,0.539,0.781,0.477,0.955,0.686,0.319,0.562,0.534,�k�k��,7.2,�L
2023/05/20,05:00,0.539,0.780,0.478,0.955,0.687,0.319,0.563,0.536,�k�k��,6.2,�L
2023/05/20,05:10,0.539,0.780,0.478,0.953,0.688,0.317,0.562,0.533,�k�k��,6.6,�L
2023/05/20,05:20,0.539,0.780,0.478,0.956,0.690,0.317,0.560,0.535,�k�k��,7.2,�L
2023/05/20,05:30,0.541,0.782,0.481,0.952,0.688,0.318,0.561,0.533,�k�k��,7.2,�L
2023/05/20,05:40,0.541,0.779,0.480,0.955,0.688,0.317,0.562,0.533,�k�k��,7.1,�L
2023/05/20,05:50,0.540,0.782,0.480,0.956,0.689,0.318,0.560,0.534,�k�k��,7.8,�L
2023/05/20,06:00,0.538,0.779,0.480,0.954,0.689,0.318,0.561,0.533,�k�k��,7.2,�L
2023/05/20,06:10,0.540,0.781,0.480,0.956,0.686,0.319,0.561,0.534,�k�k��,8.1,�L
2023/05/20,06:20,0.539,0.781,0.480,0.955,0.688,0.319,0.561,0.534,�k,7.4,�L
2023/05/20,06:30,0.539,0.782,0.480,0.955,0.686,0.317,0.560,0.533,�k�k��,8.4,�L
2023/05/20,06:40,0.538,0.778,0.479,0.956,0.688,0.318,0.560,0.533,�k�k��,7.5,�L
2023/05/20,06:50,0.537,0.779,0.480,0.954,0.685,0.318,0.560,0.533,�k,7.1,�L
2023/05/20,07:00,0.538,0.779,0.481,0.952,0.686,0.320,0.559,0.531,�k,7.3,�L
2023/05/20,07:10,0.539,0.778,0.479,0.951,0.682,0.320,0.560,0.532,�k,7.7,�L
2023/05/20,07:20,0.538,0.776,0.481,0.950,0.682,0.318,0.560,0.530,�k,7.9,�L
2023/05/20,07:30,0.537,0.775,0.479,0.950,0.685,0.318,0.558,0.529,�k,7.1,�L
2023/05/20,07:40,0.537,0.775,0.480,0.948,0.683,0.319,0.558,0.531,�k,7.9,�L
2023/05/20,07:50,0.537,0.774,0.478,0.947,0.682,0.319,0.558,0.529,�k,7.0,�L
2023/05/20,08:00,0.536,0.777,0.480,0.944,0.680,0.320,0.557,0.530,�k,7.0,�L
2023/05/20,08:10,0.536,0.776,0.478,0.946,0.682,0.319,0.558,0.530,�k,7.2,�L
2023/05/20,08:20,0.536,0.774,0.478,0.945,0.681,0.319,0.557,0.527,�k,7.7,�L
2023/05/20,08:30,0.537,0.772,0.480,0.944,0.679,0.319,0.557,0.530,�k,7.4,�L
2023/05/20,08:40,0.536,0.772,0.479,0.941,0.682,0.318,0.556,0.529,�k�k��,8.2,�L
2023/05/20,08:50,0.535,0.771,0.478,0.942,0.680,0.319,0.556,0.528,�k�k��,8.3,�L
2023/05/20,09:00,0.535,0.771,0.479,0.943,0.680,0.318,0.556,0.529,�k,7.7,�L
2023/05/20,09:10,0.535,0.771,0.478,0.941,0.680,0.318,0.557,0.527,�k,7.9,�L
2023/05/20,09:20,0.533,0.771,0.475,0.939,0.679,0.319,0.557,0.528,�k�k��,8.4,�L
2023/05/20,09:30,0.534,0.772,0.476,0.940,0.679,0.318,0.556,0.528,�k�k��,7.1,�L
2023/05/20,09:40,0.533,0.771,0.476,0.941,0.680,0.320,0.555,0.529,�k,7.4,�L
2023/05/20,09:50,0.533,0.772,0.477,0.942,0.679,0.318,0.556,0.528,�k�k��,9.0,�L
2023/05/20,10:00,0.533,0.771,0.478,0.939,0.678,0.319,0.557,0.528,�k,9.7,�L
2023/05/20,10:10,0.533,0.771,0.477,0.940,0.679,0.318,0.556,0.528,�k,9.9,�L
2023/05/20,10:20,0.532,0.771,0.477,0.942,0.679,0.317,0.555,0.528,�k�k��,11.3,�L
2023/05/20,10:30,0.533,0.770,0.476,0.941,0.677,0.318,0.555,0.528,�k�k��,8.9,�L
2023/05/20,10:40,0.533,0.772,0.476,0.941,0.679,0.317,0.556,0.529,�k�k��,9.3,�L
2023/05/20,10:50,0.531,0.772,0.476,0.942,0.679,0.317,0.555,0.530,�k�k��,8.8,�L
2023/05/20,11:00,0.531,0.774,0.477,0.941,0.679,0.316,0.556,0.528,�k,7.5,�L
2023/05/20,11:10,0.533,0.773,0.477,0.942,0.679,0.316,0.557,0.529,�k�k��,8.1,�L
2023/05/20,11:20,0.535,0.773,0.478,0.941,0.680,0.317,0.555,0.530,�k�k��,8.9,�L
2023/05/20,11:30,0.533,0.772,0.475,0.942,0.678,0.318,0.558,0.529,�k,8.0,�L
2023/05/20,11:40,0.533,0.773,0.477,0.942,0.681,0.318,0.557,0.529,�k�k��,8.4,�L
2023/05/20,11:50,0.531,0.775,0.475,0.945,0.680,0.317,0.557,0.531,�k�k��,9.3,�L
2023/05/20,12:00,0.534,0.776,0.477,0.943,0.680,0.316,0.556,0.529,�k�k��,8.3,�L
2023/05/20,12:10,0.535,0.774,0.477,0.941,0.680,0.316,0.558,0.531,�k�k��,8.3,�L
2023/05/20,12:20,0.533,0.774,0.477,0.944,0.681,0.316,0.557,0.529,�k�k��,7.9,�L
2023/05/20,12:30,0.533,0.774,0.477,0.943,0.681,0.317,0.557,0.529,�k,8.2,�L
2023/05/20,12:40,0.534,0.777,0.476,0.946,0.681,0.316,0.557,0.529,�k,9.5,�L
2023/05/20,12:50,0.533,0.776,0.477,0.944,0.683,0.316,0.557,0.530,�k,8.6,�L
2023/05/20,13:00,0.533,0.773,0.476,0.947,0.682,0.315,0.558,0.530,�k,9.4,�L
2023/05/20,13:10,0.533,0.776,0.476,0.945,0.682,0.318,0.557,0.531,�k,8.4,�L
2023/05/20,13:20,0.534,0.775,0.475,0.947,0.684,0.317,0.558,0.530,�k,9.2,�L
2023/05/20,13:30,0.534,0.776,0.477,0.945,0.682,0.317,0.557,0.529,�k�k��,8.4,�L
2023/05/20,13:40,0.534,0.775,0.478,0.947,0.684,0.317,0.558,0.529,�k�k��,9.8,��
2023/05/20,13:50,0.535,0.776,0.477,0.947,0.683,0.316,0.558,0.530,�k�k��,8.0,�L
2023/05/20,14:00,0.534,0.777,0.477,0.946,0.684,0.316,0.559,0.529,�k�k��,7.4,�L
2023/05/20,14:10,0.534,0.777,0.478,0.945,0.682,0.316,0.558,0.531,�k,6.4,�L
2023/05/20,14:20,0.535,0.776,0.478,0.946,0.683,0.317,0.559,0.530,�k�k��,7.2,��
2023/05/20,14:30,0.534,0.778,0.477,0.949,0.682,0.315,0.561,0.530,�k�k��,7.6,�L
2023/05/20,14:40,0.535,0.779,0.477,0.947,0.683,0.315,0.558,0.531,�k�k��,7.6,�L
2023/05/20,14:50,0.535,0.776,0.477,0.946,0.683,0.316,0.558,0.530,�k�k��,7.8,�L
2023/05/20,15:00,0.536,0.777,0.477,0.948,0.683,0.315,0.560,0.532,�k�k��,6.3,�L
2023/05/20,15:10,0.535,0.778,0.476,0.949,0.684,0.316,0.560,0.532,�k�k��,6.7,�L
2023/05/20,15:20,0.535,0.779,0.477,0.946,0.683,0.315,0.560,0.530,�k�k��,5.3,��
2023/05/20,15:30,0.535,0.778,0.476,0.948,0.683,0.317,0.558,0.531,�k�k��,5.6,��
2023/05/20,15:40,0.536,0.779,0.477,0.949,0.682,0.316,0.561,0.531,�k,5.4,��
2023/05/20,15:50,0.535,0.779,0.477,0.949,0.685,0.316,0.559,0.532,�k,5.4,��
2023/05/20,16:00,0.536,0.779,0.477,0.948,0.686,0.316,0.560,0.532,�k�k��,5.7,��
2023/05/20,16:10,0.535,0.779,0.477,0.949,0.684,0.316,0.559,0.531,�k�k��,6.4,��
2023/05/20,16:20,0.537,0.782,0.477,0.950,0.684,0.315,0.560,0.531,�k�k��,5.8,��
2023/05/20,16:30,0.537,0.779,0.476,0.949,0.684,0.316,0.561,0.530,�k,5.2,��
2023/05/20,16:40,0.536,0.779,0.478,0.947,0.684,0.317,0.560,0.532,�k,5.9,��
2023/05/20,16:50,0.537,0.780,0.476,0.949,0.686,0.314,0.560,0.532,�k,7.8,��
2023/05/20,17:00,0.537,0.780,0.477,0.951,0.684,0.316,0.560,0.531,�k,6.6,��
2023/05/20,17:10,0.535,0.779,0.477,0.950,0.685,0.315,0.560,0.532,�k�k��,5.6,�L
2023/05/20,17:20,0.536,0.779,0.477,0.952,0.686,0.316,0.560,0.532,�k,7.9,��
2023/05/20,17:30,0.537,0.781,0.476,0.951,0.685,0.315,0.561,0.532,�k,7.7,�L
2023/05/20,17:40,0.537,0.780,0.477,0.950,0.685,0.315,0.559,0.531,�k,6.9,�L
2023/05/20,17:50,0.536,0.781,0.477,0.952,0.686,0.316,0.559,0.531,�k,7.4,��
2023/05/20,18:00,0.538,0.782,0.479,0.953,0.686,0.317,0.559,0.531,�k�k��,8.2,�L
2023/05/20,18:10,0.538,0.781,0.478,0.952,0.687,0.317,0.559,0.532,�k�k��,7.1,�L
2023/05/20,18:20,0.537,0.782,0.478,0.951,0.687,0.318,0.560,0.531,�k,7.1,�L
2023/05/20,18:30,0.537,0.783,0.479,0.951,0.687,0.318,0.560,0.534,�k,6.3,�L
2023/05/20,18:40,0.538,0.785,0.479,0.949,0.687,0.317,0.560,0.531,�k,7.2,��
2023/05/20,18:50,0.538,0.782,0.480,0.954,0.687,0.317,0.561,0.531,�k,6.5,��
2023/05/20,19:00,0.539,0.784,0.479,0.950,0.685,0.316,0.558,0.533,�k�k��,7.1,��
2023/05/20,19:10,0.539,0.785,0.480,0.952,0.686,0.317,0.560,0.533,�k�k��,7.0,��
2023/05/20,19:20,0.540,0.784,0.481,0.954,0.688,0.317,0.562,0.534,�k�k��,7.5,��
2023/05/20,19:30,0.539,0.785,0.480,0.951,0.688,0.316,0.561,0.533,�k�k��,6.1,��
2023/05/20,19:40,0.540,0.785,0.481,0.952,0.687,0.318,0.561,0.534,�k�k��,7.0,�L
2023/05/20,19:50,0.541,0.786,0.480,0.950,0.687,0.317,0.560,0.534,�k,6.2,��
2023/05/20,20:00,0.540,0.785,0.480,0.953,0.689,0.319,0.561,0.534,�k,5.4,�L
2023/05/20,20:10,0.540,0.787,0.479,0.953,0.690,0.319,0.562,0.534,�k,6.5,�L
2023/05/20,20:20,0.540,0.785,0.480,0.952,0.688,0.318,0.561,0.535,�k,7.4,�L
2023/05/20,20:30,0.539,0.785,0.481,0.953,0.689,0.318,0.560,0.533,�k�k��,6.7,�L
2023/05/20,20:40,0.539,0.785,0.482,0.953,0.689,0.318,0.561,0.533,�k�k��,6.3,�L
2023/05/20,20:50,0.539,0.784,0.480,0.955,0.686,0.318,0.561,0.535,�k�k��,5.5,�L
2023/05/20,21:00,0.540,0.785,0.480,0.952,0.689,0.318,0.560,0.535,�k�k��,4.9,�L
2023/05/20,21:10,0.539,0.784,0.479,0.952,0.691,0.319,0.560,0.535,�k�k��,5.4,�L
2023/05/20,21:20,0.541,0.784,0.480,0.951,0.689,0.318,0.559,0.534,�k�k��,5.8,�L
2023/05/20,21:30,0.540,0.784,0.480,0.953,0.689,0.319,0.561,0.535,�k�k��,5.8,�L
2023/05/20,21:40,0.540,0.784,0.480,0.951,0.690,0.319,0.560,0.534,�k�k��,5.9,�L
2023/05/20,21:50,0.540,0.787,0.479,0.953,0.691,0.319,0.560,0.533,�k�k��,5.8,�L
2023/05/20,22:00,0.537,0.785,0.479,0.951,0.690,0.319,0.562,0.533,�k�k��,4.9,�L
2023/05/20,22:10,0.540,0.786,0.479,0.951,0.688,0.319,0.560,0.533,�k�k��,5.2,�L
2023/05/20,22:20,0.539,0.784,0.478,0.953,0.689,0.318,0.560,0.534,�k��,4.9,��
2023/05/20,22:30,0.541,0.785,0.479,0.951,0.689,0.318,0.562,0.534,�k�k��,5.4,��
2023/05/20,22:40,0.540,0.783,0.479,0.951,0.689,0.318,0.561,0.534,�k�k��,4.9,��
2023/05/20,22:50,0.539,0.784,0.479,0.954,0.687,0.317,0.564,0.534,�k�k��,5.0,��
2023/05/20,23:00,0.540,0.783,0.479,0.951,0.689,0.319,0.562,0.535,�k�k��,4.6,��
2023/05/20,23:10,0.539,0.786,0.478,0.953,0.688,0.318,0.562,0.534,�k�k��,5.7,�L
2023/05/20,23:20,0.539,0.785,0.478,0.953,0.690,0.319,0.561,0.533,�k�k��,5.2,��
2023/05/20,23:30,0.539,0.784,0.478,0.953,0.690,0.318,0.561,0.534,�k�k��,5.8,��
2023/05/20,23:40,0.540,0.784,0.479,0.954,0.690,0.317,0.560,0.533,�k�k��,5.8,��
2023/05/20,23:50,0.539,0.785,0.479,0.951,0.687,0.318,0.563,0.534,�k��,6.1,��
